Regional Weather Roundup
Issued by NWS

Home | Current Version | Previous Version | Graphics & Text | Print | Product List | Glossary On
Versions: 1 2 3 4 5 6 7 8 9 10 11 12 13 14 15 16 17 18 19 20 21 22 23 24 25 26 27 28 29 30 31 32 33 34 35 36 37 38 39 40 41 42 43 44 45 46 47 48 49 50
000
ASUS45 KBOU 291910
RWRCO

WEATHER ROUNDUP FOR COLORADO
NATIONAL WEATHER SERVICE DENVER/BOULDER CO
100 PM MDT MON JUN 29 2015

NOTE: "FAIR" INDICATES FEW OR NO CLOUDS BELOW 12000 FEET WITH NO
SIGNIFICANT WEATHER AND/OR OBSTRUCTIONS TO VISIBILITY.

COZ001>005-013-030-031-292000-
...NORTHWEST COLORADO...

CITY           SKY/WX    TMP DP  RH WIND       PRES   REMARKS
CRAIG          SUNNY     88  42  20 E6        30.28F
HAYDEN         SUNNY     82  39  21 CALM      30.30F
MEEKER         SUNNY     88  40  18 NE12      30.28F
MOUNT WERNER   NOT AVBL
STEAMBOAT SPGS SUNNY     82  43  25 SW3       30.32F
WALDEN         MOSUNNY   73  39  29 NW3       30.43F
$$

COZ006>008-011-292000-
...WEST CENTRAL VALLEYS...

CITY           SKY/WX    TMP DP  RH WIND       PRES   REMARKS
GRAND JUNCTION SUNNY     91  43  18 VRB3      30.13F
MONTROSE       SUNNY     91  42  18 N8        30.23F
EAGLE          MOSUNNY   84  39  20 SW7       30.29F
RIFLE          SUNNY     91  42  18 NW7       30.19F
DELTA          SUNNY     93  42  17 N6        30.17F
NUCLA          SUNNY     88  41  19 N5        30.27F
$$

COZ017>023-064>068-292000-
...SOUTHWEST COLORADO...

CITY           SKY/WX    TMP DP  RH WIND       PRES   REMARKS
DURANGO        SUNNY     84  42  22 W10       30.27F
CORTEZ         SUNNY     91  43  18 E5        30.22F
PAGOSA SPRINGS MOSUNNY   79  41  25 CALM      30.38S
TELLURIDE      MOSUNNY   76  40  27 NW5G20    30.51F
WOLF CREEK PAS NOT AVBL
$$

COZ009-010-012-014-032>034-037-058>063-292000-
...CENTRAL COLORADO...

CITY           SKY/WX    TMP DP  RH WIND       PRES   REMARKS
ASPEN          SUNNY     82  43  25 NW9       30.37F
BUENA VISTA    MOSUNNY   76  41  28 NE3       30.38S
COPPER MTN     PTSUNNY   63  34  34 W7G22     30.74S
BERTHOUD PASS  FAIR      52  41  66 E9        30.79F
COTTONWOOD PAS NOT AVBL
GUNNISON       SUNNY     79  45  29 W7        30.40F
KREMMLING      SUNNY     82  30  15 N7        30.37F
LEADVILLE      SUNNY     73  29  19 N15G28    30.53F
MONARCH PASS   PTSUNNY   59  45  58 W3        30.82S
SALIDA         MOSUNNY   82  44  25 SE15G22   30.42F
SUNLIGHT       SUNNY     70  43  37 NW5       30.67F
WILKERSON PASS PTSUNNY   59  41  51 NE8       30.70F
$$

COZ069>075-292000-
...SAN LUIS VALLEY/SANGRE DE CRISTO MOUNTAINS...

CITY           SKY/WX    TMP DP  RH WIND       PRES   REMARKS
ALAMOSA        SUNNY     76  46  34 VRB3      30.36F
LA VETA PASS   MOSUNNY   68  43  40 MISG      30.59R
SAGUACHE       NOT AVBL
$$

COZ035-036-038>040-292000-
...NORTHERN COLORADO FRONT RANGE...

CITY           SKY/WX    TMP DP  RH WIND       PRES   REMARKS
DENVER INTL AP MOSUNNY   84  52  33 VRB7      30.25F
DMNS CITY PARK   N/A     84  49  29 NE13      30.24F
AURORA         MOSUNNY   81  53  37 VRB7      30.28F
FRONT RANGE AP MOSUNNY   82  54  36 CALM      30.27F
ERIE MUNI ARPT SUNNY     83  47  27 NE3       30.23F
BOULDER MUN AP SUNNY     82  48  30 CALM      30.25S
CENTENNIAL     MOSUNNY   81  51  35 VRB5      30.28F
BROOMFIELD     MOSUNNY   82  48  30 N5        30.29S
FORT COLLINS   SUNNY     84  55  37 NE7       30.23F
LONGMONT       SUNNY     88  52  29 E9        30.25S
$$

COZ041-046-047-076>085-087-088-292000-
...PIKES PEAK/PALMER DIVIDE AND SOUTHERN FOOTHILLS...

CITY           SKY/WX    TMP DP  RH WIND       PRES   REMARKS
COLO. SPRINGS  MOSUNNY   79  48  33 SE7       30.32F
A. F. ACADEMY  MOSUNNY   77  49  37 VRB2      30.32F
ELLICOTT       MOSUNNY  N/A N/A N/A SE8       30.31F
FALCON         MOSUNNY   77  53  42 E8        30.38S
FORT CARSON    MOSUNNY   77  56  47 E6        30.29F
LIMON          SUNNY     76  56  49 SW9       30.26F
MONUMENT HILL    N/A     73  50  43 NE6       30.38F
TRINIDAD       MOSUNNY   84  45  25 N7        30.26S
$$

COZ042>045-048>051-090-091-292000-
...NORTHEAST COLORADO...

CITY           SKY/WX    TMP DP  RH WIND       PRES   REMARKS
GREELEY ARPT   SUNNY     86  54  32 S3        30.22F
AKRON          MOSUNNY   84  54  35 VRB6      30.19F
BURLINGTON     MOSUNNY   85  49  28 NW6       30.18S
WRAY           PTSUNNY   91  48  22 NW6       30.13F
STERLING       MOSUNNY   88  57  35 E8        30.14F
HOLYOKE        PTSUNNY   86  55  35 E6        30.14F
FORT MORGAN    MOSUNNY   84 -18   2 CALM      30.20F
$$

COZ086-089-092>099-292000-
...SOUTHEAST COLORADO...

CITY           SKY/WX    TMP DP  RH WIND       PRES   REMARKS
PUEBLO         MOSUNNY   85  53  33 SE15      30.21F
LA JUNTA       PTSUNNY   76  62  62 SE12      30.20F
LAMAR          CLOUDY    79  57  46 SW16      30.13F
SPRINGFIELD      N/A     77  52  41 NE16      30.22R
$$



USA.gov is the U.S. government's official web portal to all federal, state and local government web resources and services.